AirNav   Everest Fuels
 
 892 users online  

96TX Garrett Farms Airport
Danbury, Texas, USA

GOING TO DANBURY?


FAA INFORMATION EFFECTIVE 21 MAY 2020

Location

FAA Identifier: 96TX
Lat/Long: 29-16-40.1800N 095-21-06.5800W
29-16.669667N 095-21.109667W
29.2778278,-95.3518278
(estimated)
Elevation: 30 ft. / 9 m
From city: 3 miles NNW of DANBURY, TX
Time zone: UTC -5 (UTC -6 during Standard Time)
Zip code: 77534

Airport Operations

Airport use: Private use. Permission required prior to landing
Activation date: 10/2015
Control tower: no
ARTCC: HOUSTON CENTER
FSS: MONTGOMERY COUNTY FLIGHT SERVICE STATION
Attendance: UNATNDD
Segmented circle: no

Airport Communications

WX ASOS at LBX (12 nm SW): 119.925 (979-849-3319)
WX AWOS-3 at AXH (15 nm NW): 123.625 (281-431-6572)
WX ASOS at LVJ (16 nm N): 118.525 (281-992-1853)

Nearby radio navigation aids

VOR radial/distance  VOR name  Freq  Var
VUHr265/25.3SCHOLES VOR/DME113.0006E
MHFr236/35.5TRINITY VOR/DME113.6007E

Airport Services

Runway Information

Runway 8/26

Dimensions: 2450 x 30 ft. / 747 x 9 m
Surface: turf, in good condition
RUNWAY 8  RUNWAY 26
Traffic pattern: rightleft

Airport Ownership and Management from official FAA records

Ownership: Privately-owned
Owner: JOHN T. GARRETT JR.
1002 COUNTY ROAD 33
DANBURY, TX 77534-9785
Phone 979-922-8405
Manager: JOHN T. GARRETT JR.
1002 COUNTY ROAD 33
DANBURY, TX 77534-9785
Phone 979-922-8405

Additional Remarks

FOR CD CTC HOUSTON ARTCC AT 281-230-5622.

Instrument Procedures

There are no published instrument procedures at 96TX.

Some nearby airports with instrument procedures:

KLBX - Texas Gulf Coast Regional Airport (12 nm SW)
KAXH - Houston Southwest Airport (15 nm NW)
KLVJ - Pearland Regional Airport (16 nm N)
KEFD - Ellington Airport (22 nm NE)
KHOU - William P Hobby Airport (22 nm N)
 
Loc | Ops | Rwys | IFR | FBO | Links
Com | Nav | Svcs | Stats | Notes
Aerial photo
No photo
 
Airport distance calculator
Flying to Garrett Farms Airport? Find the distance to fly.

From to 96TX

Sunrise and sunset
Times for 01-Jun-2020
 Local
(UTC-5)
 Zulu
(UTC)
Morning civil twilight05:5610:56
Sunrise06:2311:23
Sunset20:1601:16
Evening civil twilight20:4201:42

Current date and time
Zulu (UTC)  01-Jun-2020 23:33:12
Local (UTC-5)  01-Jun-2020 18:33:12
 
METAR
KLBX 
11nm SW 
012253Z AUTO 11008KT 10SM FEW027 28/22 A3003 RMK AO2 SLP170 T02830222
KAXH 
15nm NW 
012320Z AUTO 14006KT 10SM CLR 27/22 A3003 RMK AO2 LTG DSNT NE T02720224
KLVJ 
15nm N 
012253Z AUTO 10007KT 10SM CLR 29/21 A3004 RMK AO2 SLP172 T02940206
KEFD 
22nm NE 
012250Z 09011KT 10SM FEW030 BKN140 OVC250 28/22 A3003
KHOU 
22nm N 
012253Z 09008KT 10SM FEW042 BKN140 OVC250 29/22 A3003 RMK AO2 LTG DSNT N AND NE SLP172 T02940217
TAF
KLBX 
11nm SW 
011720Z 0118/0218 08009KT P6SM SCT060 BKN100 FM012000 08007KT P6SM VCTS SCT040CB BKN120 FM020000 11004KT P6SM FEW025 BKN100 FM020900 VRB03KT 5SM BR FEW030 SCT250 FM021400 06007KT P6SM FEW035 SCT100
NOTAMs
Click for the latest NOTAMs
NOTAMs are issued by the DoD/FAA and will open in a separate window not controlled by AirNav.

 

 
 

Would you like to see your business listed on this page?

 If your business provides an interesting product or service to pilots, flight crews, aircraft, or users of the Garrett Farms Airport, you should consider listing it here.  To start the listing process, click on the button below
 
Add a business
 

Other Pages about Garrett Farms Airport

Update a link
 
Copyright © AirNav, LLC. All rights reserved. Privacy Policy  Contact